Regional Weather Roundup
Issued by NWS

Home | Current Version | Previous Version | Text Only | Print | Product List | Glossary Off
Versions: 1 2 3 4 5 6 7 8 9 10 11 12 13 14 15 16 17 18 19 20 21 22 23 24 25 26 27 28 29 30 31 32 33 34 35 36 37 38 39 40 41 42 43 44 45 46 47 48 49

000
ASUS45 KBOU 041407
RWRCO

WEATHER ROUNDUP FOR COLORADO
NATIONAL WEATHER SERVICE DENVER/BOULDER CO
800 AM MDT FRI SEP 04 2015

NOTE: "FAIR" INDICATES FEW OR NO CLOUDS BELOW 12000 FEET WITH NO
SIGNIFICANT WEATHER AND/OR OBSTRUCTIONS TO VISIBILITY.

COZ001>005-013-030-031-041500-
...NORTHWEST COLORADO...

CITY           SKY/WX    TMP DP  RH WIND       PRES   REMARKS
CRAIG          MOSUNNY   49  44  83 SW5       30.11R
HAYDEN         MOSUNNY   54  41  62 E12       30.12R
MEEKER         MOSUNNY   55  47  74 E3        30.11R
MOUNT WERNER   NOT AVBL
STEAMBOAT SPGS MOSUNNY   45  42  89 CALM      30.16S
WALDEN         SUNNY     39  37  93 SE6       30.23S
$$

COZ006>008-011-041500-
...WEST CENTRAL VALLEYS...

CITY           SKY/WX    TMP DP  RH WIND       PRES   REMARKS
GRAND JUNCTION PTSUNNY   66  50  56 SE18G24   30.01R
MONTROSE       CLOUDY    59  48  67 S7        30.13R
EAGLE          SUNNY     46  45  93 E6        30.24R
RIFLE          CLOUDY    57  50  77 SE3       30.09S
DELTA          RAIN      62  53  72 NE7       30.09R
NUCLA          PTSUNNY   59  46  63 E8        30.16R
$$

COZ017>023-064>068-041500-
...SOUTHWEST COLORADO...

CITY           SKY/WX    TMP DP  RH WIND       PRES   REMARKS
DURANGO        CLOUDY    57  46  66 N5        30.19R
CORTEZ         PTSUNNY   60  49  66 CALM      30.12R
PAGOSA SPRINGS CLOUDY    56  44  65 CALM      30.26R
TELLURIDE      CLOUDY    50  46  86 CALM      30.33S
WOLF CREEK PAS NOT AVBL
$$

COZ009-010-012-014-032>034-037-058>063-041500-
...CENTRAL COLORADO...

CITY           SKY/WX    TMP DP  RH WIND       PRES   REMARKS
ASPEN          MOSUNNY   47  42  83 S6        30.23S
BUENA VISTA    SUNNY     47  41  80 NW3       30.26R
COPPER MTN     MOSUNNY   48  32  53 SW3       30.50R
BERTHOUD PASS  FAIR      39  28  65 MISG      30.52S
COTTONWOOD PAS MOSUNNY   55  37  50 CALM      30.36R
GUNNISON       MOSUNNY   46  43  87 CALM      30.30R
KREMMLING      FOG       45  41  87 SE5       30.27R VSB 1/2
LEADVILLE      SUNNY     41  38  89 NE5       30.35R
MONARCH PASS   MOSUNNY   43  34  70 W8        30.59R
SALIDA         CLOUDY    51  44  74 CALM      30.32R
SUNLIGHT       PTSUNNY   48  41  76 CALM      30.43R
WILKERSON PASS MOSUNNY   46  34  61 NW7       30.47R
$$

COZ069>075-041500-
...SAN LUIS VALLEY/SANGRE DE CRISTO MOUNTAINS...

CITY           SKY/WX    TMP DP  RH WIND       PRES   REMARKS
ALAMOSA        FOG       43  43 100 CALM      30.24R VSB<1/4
LA VETA PASS   NOT AVBL
SAGUACHE       MOSUNNY   50  45  81 N7        30.27R
$$

COZ035-036-038>040-041500-
...NORTHERN COLORADO FRONT RANGE...

CITY           SKY/WX    TMP DP  RH WIND       PRES   REMARKS
DENVER INTL AP MOSUNNY   59  48  67 SW10      30.02R
DMNS CITY PARK   N/A     60  49  67 SE10      30.03R
AURORA         MOSUNNY   60  49  68 SW10      30.04R
FRONT RANGE AP PTSUNNY   63  46  55 SW5       30.04R
ERIE MUNI ARPT SUNNY     56  51  82 CALM      30.01R
BOULDER MUN AP SUNNY     59  52  77 CALM      30.01R
CENTENNIAL     PTSUNNY   60  48  64 S7        30.06R
BROOMFIELD     MOSUNNY   59  46  63 W3        30.04R
FORT COLLINS   SUNNY     57  52  82 N6        30.02R
LONGMONT       SUNNY     60  50  70 CALM      30.03R
$$

COZ041-046-047-076>085-087-088-041500-
...PIKES PEAK/PALMER DIVIDE AND SOUTHERN FOOTHILLS...

CITY           SKY/WX    TMP DP  RH WIND       PRES   REMARKS
COLO. SPRINGS  PTSUNNY   62  47  57 N3        30.11R
A. F. ACADEMY  PTSUNNY   57  45  64 VRB2      30.11R
ELLICOTT       PTSUNNY  N/A N/A N/A S6        30.09R
FALCON         PTSUNNY   60  46  58 MISG      30.15R
FORT CARSON    PTSUNNY   58  49  73 NW7       30.08R
LIMON          MOSUNNY   62  51  67 N6        30.04R
MONUMENT HILL  PTSUNNY   59  43  55 SW9       30.14R
TRINIDAD       SUNNY     62  46  55 W10       30.09R
$$

COZ042>045-048>051-090-091-041500-
...NORTHEAST COLORADO...

CITY           SKY/WX    TMP DP  RH WIND       PRES   REMARKS
GREELEY ARPT   MOSUNNY   54  48  82 NW6       30.00R
AKRON          MOSUNNY   63  52  67 W10       29.98R
BURLINGTON     SUNNY     68  53  58 W8        29.97R
WRAY           CLOUDY    65  57  74 W6        29.93R
STERLING       MOSUNNY   59  54  82 S6        29.93S
HOLYOKE        SUNNY     68  54  60 W9        29.92R
FORT MORGAN    MOSUNNY   58  54  85 W6        29.99R
$$

COZ086-089-092>099-041500-
...SOUTHEAST COLORADO...

CITY           SKY/WX    TMP DP  RH WIND       PRES   REMARKS
PUEBLO         MOSUNNY   62  53  72 W3        30.02R
LA JUNTA       MOSUNNY   70  51  51 W6        29.99R
LAMAR          SUNNY     67  54  63 SW3       29.94R
SPRINGFIELD      N/A     72  51  47 NW7       29.99R
$$



USA.gov is the U.S. government's official web portal to all federal, state and local government web resources and services.